Roi Et Airport
VTUV : now visible

Airfield :











YOU CAN JOIN US ON...

 
LOGIN :

Register | Disclaimer

   EN    FR    IT 

 









Legend :    VFR   Marginal VFR   IFR   Intensive IFR   Very Intensive IFR
Visi :
Ceiling :
>= 8 km
>= 3000ft
5 to 8 km
1000 to 3000 ft
1500m to 5 km
500 to 1000 ft
800 to 1500m
200 to 500 ft
< 800m
< 200 ft
Symbols :   Thunderstorms  Fog  Heavy snow  Heavy precipitations  Wind > 20 kt






- Airport Elevation : 451 ft
- IATA code : ROI


VTUV - Roi Et

CURRENT METAR :
  • 010500Z 23005KT 170V290 8000 FEW025 36/21 Q1009 NOSIG

EXPIRED METARs :
  • 010400Z 21008KT 9000 FEW025 35/22 Q1010 NOSIG
  • 010300Z 19007KT 160V240 8000 NSC 34/22 Q1011 NOSIG

TAF TAF VTUV
Valid from the 01 at 06:00 until the 02 at 06:00 UTC


010500Z 0106/0206 18005KT 8000 FEW030
BECMG 0121/0123 5000 BR
BECMG 0200/0202 8000 NSW



MET'MAP, your aeronautical weather chart ! - Copyright ORBIFLY December 2007 - Disclaimer

ORBIFLY MET'MAP TEAM :

Programming & Development : Alexandra Zaïnal
Concept & original design : Baudouin d'Aumeries
Assistance for programming : Marc-Olivier Méhu
Technical & hardware support : Manuel Goepfert

Contact : metmap@orbifly.com




SOURCES & CREDITS :

   NOAA       Earth
Advisory